Austin, MN

12:59 PM CDT on June 26, 2017 (GMT -0500)
Austin Municipal

Weather History for KAUM - October, 2013

Change the Weather History Date:

Friday, October 11, 2013

  Actual Average Record
Temperature  
Mean Temperature 63 °F -  
Max Temperature 71 °F 61 °F 84 °F (2015)
Min Temperature 55 °F 39 °F 28 °F (2000)
Degree Days  
Heating Degree Days 2    
Growing Degree Days 13 (Base 50)    
Moisture  
Dew Point 54 °F    
Average Humidity 72    
Maximum Humidity 94    
Minimum Humidity 50    
Precipitation  
Precipitation 0.00 in - - ()
Sea Level Pressure  
Sea Level Pressure 29.81 in    
Wind  
Wind Speed 11 mph (SSE)    
Max Wind Speed 23 mph    
Max Gust Speed 32 mph    
Visibility 10 miles    
Events      
Averages and records for this station are not official NWS values.
T = Trace of Precipitation, MM = Missing Value Source: NWS Daily Summary

Daily Weather History Graph

Daily Weather History Graph

Search for Another Location

Airport or City:

Trip Planner

Search our weather history database for the weather conditions in past years. The results will help you decide how hot, cold, wet, or windy it might be!

Date:

Astronomy

Oct. 11, 2013 Rise Set
Actual Time 7:21 AM CDT 6:34 PM CDT
Civil Twilight 6:52 AM CDT 7:03 PM CDT
Nautical Twilight 6:19 AM CDT 7:36 PM CDT
Astronomical Twilight 5:46 AM CDT 8:09 PM CDT
Moon 2:09 PM CDT (10/11) No Moon Set
Length of Visible Light 12h 10m
Length of Day
11h 13m
Waxing Crescent, 47% of the Moon is Illuminated
Oct 11
Waxing Crescent
Oct 11
First Quarter
Oct 18
Full
Oct 26
Last Quarter
Nov 3
New

Hourly Weather History & Observations

Time (CDT) Temp. Dew Point Humidity Pressure Visibility Wind Dir Wind Speed Gust Speed Precip Events Conditions
12:17 AM 57.2 °F 50.0 °F 77% 29.91 in 10.0 mi SSE 6.9 mph - N/A   Clear
12:36 AM 57.2 °F 50.0 °F 77% 29.91 in 10.0 mi SSE 8.1 mph - N/A   Clear
12:57 AM 57.2 °F 50.0 °F 77% 29.91 in 10.0 mi South 8.1 mph - N/A   Clear
1:17 AM 57.2 °F 51.8 °F 82% 29.93 in 10.0 mi SSE 6.9 mph - N/A   Clear
1:36 AM 55.4 °F 51.8 °F 88% 29.93 in 10.0 mi SSE 5.8 mph - N/A   Clear
1:57 AM 55.4 °F 51.8 °F 88% 29.92 in 10.0 mi SSE 6.9 mph - N/A   Clear
2:17 AM 55.4 °F 51.8 °F 88% 29.92 in 10.0 mi SSE 8.1 mph - N/A   Clear
2:36 AM 55.4 °F 51.8 °F 88% 29.91 in 10.0 mi SSE 8.1 mph - N/A   Clear
2:57 AM 55.4 °F 51.8 °F 88% 29.91 in 10.0 mi SSE 8.1 mph - N/A   Clear
3:17 AM 55.4 °F 51.8 °F 88% 29.90 in 10.0 mi SSE 8.1 mph - N/A   Clear
3:36 AM 55.4 °F 51.8 °F 88% 29.90 in 10.0 mi SSE 8.1 mph - N/A   Clear
3:57 AM 55.4 °F 51.8 °F 88% 29.90 in 10.0 mi SSE 9.2 mph - N/A   Clear
4:16 AM 55.4 °F 51.8 °F 88% 29.90 in 10.0 mi SSE 8.1 mph - N/A   Clear
4:36 AM 55.4 °F 51.8 °F 88% 29.90 in 10.0 mi SSE 6.9 mph - N/A   Clear
4:57 AM 55.4 °F 51.8 °F 88% 29.90 in 10.0 mi SSE 8.1 mph - N/A   Clear
5:17 AM 55.4 °F 51.8 °F 88% 29.91 in 10.0 mi SSE 8.1 mph - N/A   Clear
5:36 AM 55.4 °F 51.8 °F 88% 29.91 in 10.0 mi SSE 8.1 mph - N/A   Clear
5:57 AM 55.4 °F 51.8 °F 88% 29.90 in 10.0 mi SSE 8.1 mph - N/A   Clear
6:16 AM 55.4 °F 51.8 °F 88% 29.90 in 10.0 mi SSE 8.1 mph - N/A   Clear
6:37 AM 55.4 °F 51.8 °F 88% 29.89 in 10.0 mi SSE 9.2 mph - N/A   Clear
6:56 AM 55.4 °F 51.8 °F 88% 29.89 in 10.0 mi SE 9.2 mph - N/A   Clear
7:17 AM 55.4 °F 51.8 °F 88% 29.89 in 10.0 mi SSE 9.2 mph - N/A   Clear
7:37 AM 55.4 °F 51.8 °F 88% 29.89 in 10.0 mi SSE 9.2 mph - N/A   Clear
7:56 AM 55.4 °F 51.8 °F 88% 29.88 in 10.0 mi SE 11.5 mph - N/A   Clear
8:17 AM 55.4 °F 53.6 °F 94% 29.87 in 10.0 mi SE 11.5 mph 17.3 mph N/A   Clear
8:37 AM 57.2 °F 53.6 °F 88% 29.87 in 10.0 mi SE 11.5 mph 17.3 mph N/A   Clear
8:56 AM 59.0 °F 53.6 °F 82% 29.86 in 10.0 mi SSE 10.4 mph 17.3 mph N/A   Clear
9:17 AM 60.8 °F 55.4 °F 82% 29.86 in 10.0 mi SSE 11.5 mph 17.3 mph N/A   Clear
9:37 AM 60.8 °F 55.4 °F 82% 29.85 in 10.0 mi SSE 13.8 mph 24.2 mph N/A   Clear
9:56 AM 62.6 °F 55.4 °F 77% 29.84 in 10.0 mi SSE 17.3 mph 24.2 mph N/A   Clear
10:16 AM 64.4 °F 55.4 °F 73% 29.84 in 10.0 mi SSE 15.0 mph 24.2 mph N/A   Clear
10:37 AM 64.4 °F 55.4 °F 73% 29.83 in 10.0 mi SE 17.3 mph 25.3 mph N/A   Clear
10:57 AM 66.2 °F 55.4 °F 68% 29.82 in 10.0 mi SSE 17.3 mph 26.5 mph N/A   Clear
11:16 AM 66.2 °F 55.4 °F 68% 29.81 in 10.0 mi SSE 17.3 mph 28.8 mph N/A   Clear
11:37 AM 68.0 °F 55.4 °F 64% 29.81 in 10.0 mi SSE 15.0 mph 26.5 mph N/A   Clear
11:57 AM 69.8 °F 57.2 °F 64% 29.80 in 10.0 mi SSE 19.6 mph 28.8 mph N/A   Scattered Clouds
12:16 PM 69.8 °F 57.2 °F 64% 29.80 in 10.0 mi SSE 16.1 mph 27.6 mph N/A   Clear
12:37 PM 69.8 °F 57.2 °F 64% 29.78 in 10.0 mi SSE 17.3 mph 26.5 mph N/A   Clear
12:56 PM 69.8 °F 55.4 °F 60% 29.78 in 10.0 mi SSE 17.3 mph 28.8 mph N/A   Clear
1:17 PM 71.6 °F 53.6 °F 53% 29.76 in 10.0 mi SSE 23.0 mph 29.9 mph N/A   Clear
1:36 PM 69.8 °F 53.6 °F 56% 29.75 in 10.0 mi SSE 17.3 mph 32.2 mph N/A   Clear
1:56 PM 69.8 °F 53.6 °F 56% 29.75 in 10.0 mi SSE 15.0 mph 24.2 mph N/A   Clear
2:17 PM 69.8 °F 51.8 °F 53% 29.74 in 10.0 mi SSE 18.4 mph 27.6 mph N/A   Clear
2:36 PM 71.6 °F 53.6 °F 53% 29.74 in 10.0 mi SSE 18.4 mph 26.5 mph N/A   Clear
2:57 PM 71.6 °F 53.6 °F 53% 29.73 in 10.0 mi SSE 17.3 mph 27.6 mph N/A   Scattered Clouds
3:17 PM 71.6 °F 51.8 °F 50% 29.73 in 10.0 mi SSE 20.7 mph 29.9 mph N/A   Scattered Clouds
3:36 PM 71.6 °F 51.8 °F 50% 29.71 in 10.0 mi SSE 20.7 mph 28.8 mph N/A   Mostly Cloudy
3:57 PM 71.6 °F 53.6 °F 53% 29.71 in 10.0 mi SSE 16.1 mph 31.1 mph N/A   Mostly Cloudy
4:16 PM 71.6 °F 53.6 °F 53% 29.71 in 10.0 mi SSE 16.1 mph 26.5 mph N/A   Overcast
4:37 PM 71.6 °F 53.6 °F 53% 29.71 in 10.0 mi SSE 15.0 mph 27.6 mph N/A   Overcast
4:57 PM 71.6 °F 51.8 °F 50% 29.72 in 10.0 mi SSE 16.1 mph 21.9 mph N/A   Overcast
5:16 PM 71.6 °F 51.8 °F 50% 29.72 in 10.0 mi SSE 13.8 mph 23.0 mph N/A   Overcast
5:37 PM 71.6 °F 51.8 °F 50% 29.72 in 10.0 mi SSE 13.8 mph 24.2 mph N/A   Mostly Cloudy
5:57 PM 71.6 °F 51.8 °F 50% 29.72 in 10.0 mi South 13.8 mph 19.6 mph N/A   Overcast
6:16 PM 69.8 °F 53.6 °F 56% 29.73 in 10.0 mi South 16.1 mph 26.5 mph N/A   Overcast
6:37 PM 69.8 °F 53.6 °F 56% 29.74 in 10.0 mi South 11.5 mph 19.6 mph N/A   Overcast
6:57 PM 69.8 °F 53.6 °F 56% 29.73 in 10.0 mi South 11.5 mph - N/A   Overcast
7:16 PM 69.8 °F 53.6 °F 56% 29.74 in 10.0 mi South 10.4 mph - N/A   Overcast
7:37 PM 69.8 °F 53.6 °F 56% 29.75 in 10.0 mi South 13.8 mph 23.0 mph N/A   Overcast
7:57 PM 69.8 °F 55.4 °F 60% 29.75 in 10.0 mi South 11.5 mph 20.7 mph N/A   Overcast
8:16 PM 68.0 °F 55.4 °F 64% 29.75 in 10.0 mi South 11.5 mph 19.6 mph N/A   Mostly Cloudy
8:37 PM 66.2 °F 55.4 °F 68% 29.75 in 10.0 mi South 8.1 mph - N/A   Scattered Clouds
8:57 PM 66.2 °F 55.4 °F 68% 29.75 in 10.0 mi South 8.1 mph 17.3 mph N/A   Scattered Clouds
9:16 PM 66.2 °F 57.2 °F 73% 29.75 in 10.0 mi South 9.2 mph 16.1 mph N/A   Clear
9:37 PM 64.4 °F 57.2 °F 77% 29.74 in 10.0 mi SSE 8.1 mph - N/A   Clear
9:57 PM 64.4 °F 57.2 °F 77% 29.74 in 10.0 mi South 9.2 mph - N/A   Clear
10:16 PM 64.4 °F 57.2 °F 77% 29.74 in 10.0 mi South 9.2 mph - N/A   Clear
10:37 PM 64.4 °F 57.2 °F 77% 29.74 in 10.0 mi SSE 10.4 mph 16.1 mph N/A   Clear
10:57 PM 64.4 °F 57.2 °F 77% 29.75 in 10.0 mi South 11.5 mph - N/A   Clear
11:16 PM 64.4 °F 59.0 °F 83% 29.75 in 10.0 mi South 11.5 mph 17.3 mph N/A   Clear
11:37 PM 64.4 °F 59.0 °F 83% 29.75 in 10.0 mi South 10.4 mph - N/A   Clear
11:56 PM 64.4 °F 60.8 °F 88% 29.76 in 10.0 mi South 15.0 mph 18.4 mph N/A   Mostly Cloudy